Change the Weather History Date:

Tuesday, February 25, 2014

  Actual Average (KEVW) Record (KEVW)
Temperature  
Mean Temperature 36 °F 25 °F  
Max Temperature 50 °F 33 °F 44 °F (1999)
Min Temperature 21 °F 16 °F 0 °F (1997)
Degree Days  
Heating Degree Days 30 40  
Month to date heating degree days 1058  
Since 1 July heating degree days 5887  
Cooling Degree Days 0 0  
Month to date cooling degree days 0  
Year to date cooling degree days 0  
Moisture  
Dew Point 27 °F    
Average Humidity 65    
Maximum Humidity 90    
Minimum Humidity 41    
Precipitation  
Precipitation 0.00 in 0.02 in 0.12 in (2003)
Month to date precipitation 0.54  
Year to date precipitation 1.08  
Sea Level Pressure  
Sea Level Pressure 30.06 in    
Wind  
Wind Speed 13 mph (West)    
Max Wind Speed 29 mph    
Max Gust Speed 38 mph    
Visibility 10 miles    
Events      
T = Trace of Precipitation, MM = Missing Value Source: NWS Daily Summary

Daily Weather History Graph

Daily Weather History Graph

Search for Another Location

Airport or City:

Trip Planner

Search our weather history database for the weather conditions in past years. The results will help you decide how hot, cold, wet, or windy it might be!

Date:

Astronomy

Feb. 25, 2014 Rise Set
Actual Time 7:02 AM MST 6:07 PM MST
Civil Twilight 6:34 AM MST 6:35 PM MST
Nautical Twilight 6:02 AM MST 7:07 PM MST
Astronomical Twilight 5:30 AM MST 7:39 PM MST
Moon 4:02 AM MST (2/25) 2:15 PM MST (2/25)
Length of Visible Light 12h 01m
Length of Day
11h 05m
Waning Crescent, 17% of the Moon is Illuminated
Feb 25
Waning Crescent
Mar 1
New
Mar 8
First Quarter
Mar 16
Full
Mar 23
Last Quarter

Hourly Weather History & Observations

Time (MST) Temp. Windchill Dew Point Humidity Pressure Visibility Wind Dir Wind Speed Gust Speed Precip Events Conditions
12:15 AM 37.8 °F 29.8 °F 24.6 °F 59% 30.08 in 10.0 mi WSW 12.7 mph - N/A   Overcast
12:35 AM 36.7 °F 28.4 °F 25.2 °F 63% 30.08 in 10.0 mi WSW 12.7 mph - N/A   Mostly Cloudy
12:55 AM 36.1 °F 27.7 °F 25.2 °F 64% 30.08 in 10.0 mi WSW 12.7 mph - N/A   Scattered Clouds
1:15 AM 36.7 °F 28.9 °F 25.2 °F 63% 30.08 in 10.0 mi WSW 11.5 mph - N/A   Scattered Clouds
1:35 AM 36.7 °F 29.4 °F 25.5 °F 64% 30.07 in 10.0 mi WSW 10.4 mph - N/A   Overcast
1:55 AM 36.9 °F 29.6 °F 25.5 °F 64% 30.06 in 10.0 mi WSW 10.4 mph - N/A   Overcast
2:15 AM 36.3 °F 30.1 °F 25.7 °F 65% 30.06 in 10.0 mi WSW 8.1 mph - N/A   Overcast
2:35 AM 35.8 °F 28.8 °F 26.1 °F 68% 30.06 in 10.0 mi WSW 9.2 mph - N/A   Overcast
2:55 AM 36.7 °F 28.9 °F 26.2 °F 66% 30.04 in 10.0 mi WSW 11.5 mph - N/A   Overcast
3:15 AM 36.7 °F 29.4 °F 26.2 °F 66% 30.04 in 10.0 mi WSW 10.4 mph - N/A   Overcast
3:35 AM 35.6 °F 29.2 °F 26.1 °F 68% 30.04 in 10.0 mi West 8.1 mph - N/A   Overcast
3:55 AM 34.5 °F 28.6 °F 26.2 °F 72% 30.03 in 10.0 mi West 6.9 mph - N/A   Mostly Cloudy
4:15 AM 34.2 °F 26.8 °F 26.4 °F 73% 30.03 in 10.0 mi West 9.2 mph - N/A   Scattered Clouds
4:35 AM 33.8 °F 26.4 °F 26.4 °F 74% 30.03 in 10.0 mi West 9.2 mph - N/A   Clear
4:55 AM 32.9 °F 25.3 °F 26.6 °F 78% 30.03 in 10.0 mi West 9.2 mph - N/A   Clear
5:15 AM 32.7 °F 25.0 °F 26.6 °F 78% 30.03 in 10.0 mi West 9.2 mph - N/A   Clear
5:35 AM 32.9 °F 24.7 °F 26.2 °F 76% 30.03 in 10.0 mi West 10.4 mph - N/A   Clear
5:55 AM 33.8 °F 25.8 °F 26.1 °F 73% 30.03 in 10.0 mi WSW 10.4 mph - N/A   Clear
6:15 AM 33.8 °F 25.8 °F 25.9 °F 73% 30.03 in 10.0 mi West 10.4 mph - N/A   Clear
6:35 AM 33.6 °F 28.4 °F 25.7 °F 73% 30.04 in 10.0 mi WNW 5.8 mph - N/A   Clear
6:55 AM 34.5 °F 28.6 °F 25.3 °F 69% 30.04 in 10.0 mi WNW 6.9 mph - N/A   Scattered Clouds
7:15 AM 34.7 °F 28.1 °F 25.2 °F 68% 30.04 in 10.0 mi West 8.1 mph - N/A   Mostly Cloudy
7:35 AM 36.3 °F 28.4 °F 25.0 °F 63% 30.04 in 10.0 mi West 11.5 mph - N/A   Mostly Cloudy
7:55 AM 37.4 °F 32.8 °F 24.8 °F 60% 30.04 in 10.0 mi West 5.8 mph - N/A   Scattered Clouds
8:15 AM 39.4 °F 32.3 °F 24.6 °F 56% 30.04 in 10.0 mi West 11.5 mph - N/A   Clear
8:35 AM 41.4 °F 33.6 °F 23.9 °F 50% 30.04 in 10.0 mi WSW 15.0 mph 18.4 mph N/A   Clear
8:55 AM 42.8 °F 35.1 °F 23.7 °F 47% 30.04 in 10.0 mi WSW 16.1 mph 21.9 mph N/A   Clear
9:15 AM 43.9 °F 36.8 °F 23.7 °F 45% 30.05 in 10.0 mi WSW 15.0 mph 20.7 mph N/A   Clear
9:35 AM 45.0 °F 37.6 °F 23.9 °F 44% 30.05 in 10.0 mi West 17.3 mph 23.0 mph N/A   Clear
9:55 AM 45.5 °F 37.3 °F 23.0 °F 41% 30.04 in 10.0 mi West 21.9 mph 29.9 mph N/A   Clear
10:15 AM 45.7 °F 37.6 °F 23.7 °F 42% 30.05 in 10.0 mi West 21.9 mph 35.7 mph N/A   Clear
10:35 AM 46.8 °F - 24.4 °F 42% 30.05 in 10.0 mi West 20.7 mph 34.5 mph N/A   Clear
10:55 AM 46.9 °F - 25.0 °F 42% 30.05 in 10.0 mi West 28.8 mph 38.0 mph N/A   Clear
11:15 AM 47.8 °F - 25.9 °F 42% 30.05 in 10.0 mi West 23.0 mph 33.4 mph N/A   Clear
11:35 AM 47.8 °F - 26.4 °F 43% 30.05 in 10.0 mi West 26.5 mph 32.2 mph N/A   Clear
11:55 AM 48.4 °F - 27.3 °F 44% 30.04 in 10.0 mi West 28.8 mph 34.5 mph N/A   Clear
12:15 PM 48.4 °F - 28.2 °F 46% 30.04 in 10.0 mi West 25.3 mph 34.5 mph N/A   Clear
12:35 PM 49.5 °F - 29.3 °F 46% 30.04 in 10.0 mi West 24.2 mph 33.4 mph N/A   Clear
12:55 PM 50.0 °F - 30.0 °F 46% 30.03 in 10.0 mi WSW 23.0 mph 35.7 mph N/A   Scattered Clouds
1:15 PM 49.3 °F - 29.8 °F 47% 30.02 in 10.0 mi WSW 25.3 mph 33.4 mph N/A   Mostly Cloudy
1:35 PM 49.6 °F - 30.2 °F 47% 30.02 in 10.0 mi WSW 24.2 mph 33.4 mph N/A   Mostly Cloudy
1:55 PM 49.3 °F - 30.6 °F 49% 30.03 in 10.0 mi West 20.7 mph 32.2 mph N/A   Overcast
2:15 PM 48.0 °F - 30.4 °F 51% 30.03 in 10.0 mi West 25.3 mph 31.1 mph N/A   Overcast
2:35 PM 46.0 °F 38.0 °F 29.8 °F 53% 30.04 in 10.0 mi West 21.9 mph 29.9 mph N/A   Overcast
2:55 PM 47.1 °F - 30.9 °F 53% 30.04 in 10.0 mi West 21.9 mph 27.6 mph N/A   Overcast
3:15 PM 47.5 °F - 30.9 °F 53% 30.04 in 10.0 mi West 17.3 mph 27.6 mph N/A   Overcast
3:35 PM 46.0 °F 38.5 °F 31.3 °F 56% 30.05 in 10.0 mi WNW 19.6 mph 28.8 mph N/A   Overcast
3:55 PM 44.4 °F 37.2 °F 31.5 °F 60% 30.06 in 10.0 mi NNW 16.1 mph 23.0 mph N/A   Overcast
4:15 PM 44.8 °F 39.0 °F 32.4 °F 62% 30.06 in 10.0 mi NW 11.5 mph 20.7 mph N/A   Overcast
4:35 PM 43.0 °F 35.7 °F 32.2 °F 66% 30.06 in 10.0 mi NNW 15.0 mph 19.6 mph N/A   Overcast
4:55 PM 41.7 °F 34.8 °F 32.0 °F 68% 30.05 in 10.0 mi WNW 12.7 mph - N/A   Mostly Cloudy
5:15 PM 41.4 °F 36.2 °F 32.0 °F 69% 30.08 in 10.0 mi NNW 8.1 mph - N/A   Mostly Cloudy
5:35 PM 40.5 °F 31.8 °F 32.0 °F 72% 30.06 in 10.0 mi WNW 17.3 mph - N/A   Overcast
5:55 PM 39.4 °F 33.8 °F 31.8 °F 74% 30.07 in 10.0 mi NW 8.1 mph - N/A   Mostly Cloudy
6:15 PM 38.8 °F 35.4 °F 32.0 °F 76% 30.08 in 10.0 mi WNW 4.6 mph - N/A   Mostly Cloudy
6:35 PM 39.0 °F 33.4 °F 32.0 °F 76% 30.08 in 10.0 mi WNW 8.1 mph - N/A   Overcast
6:55 PM 37.9 °F 32.7 °F 31.6 °F 78% 30.08 in 10.0 mi WNW 6.9 mph - N/A   Mostly Cloudy
7:15 PM 36.5 °F 31.0 °F 31.1 °F 81% 30.09 in 10.0 mi WNW 6.9 mph - N/A   Mostly Cloudy
7:35 PM 36.7 °F - 31.6 °F 82% 30.10 in 10.0 mi Calm Calm - N/A   Mostly Cloudy
7:55 PM 35.8 °F 30.9 °F 30.9 °F 82% 30.09 in 10.0 mi North 5.8 mph - N/A   Mostly Cloudy
8:15 PM 35.6 °F - 31.3 °F 84% 30.10 in 10.0 mi Calm Calm - N/A   Overcast
8:35 PM 36.3 °F 32.5 °F 31.6 °F 83% 30.11 in 10.0 mi North 4.6 mph - N/A   Overcast
8:55 PM 34.7 °F 29.6 °F 31.5 °F 88% 30.11 in 10.0 mi NNE 5.8 mph - N/A   Overcast
9:15 PM 28.6 °F 19.3 °F 26.1 °F 90% 30.12 in 10.0 mi NNE 10.4 mph - N/A   Overcast
9:35 PM 24.1 °F 12.5 °F 21.0 °F 88% 30.13 in 10.0 mi North 12.7 mph - N/A   Overcast
9:55 PM 22.6 °F 11.3 °F 19.4 °F 87% 30.14 in 10.0 mi North 11.5 mph - N/A   Overcast
10:15 PM 22.1 °F - 18.7 °F 87% 30.15 in 10.0 mi Calm Calm - N/A   Mostly Cloudy
10:35 PM 21.9 °F 13.4 °F 18.3 °F 86% 30.14 in 10.0 mi North 6.9 mph - N/A   Overcast
10:55 PM 21.2 °F 12.6 °F 17.6 °F 86% 30.15 in 10.0 mi North 6.9 mph - N/A   Overcast
11:15 PM 21.0 °F 13.4 °F 17.4 °F 86% 30.15 in 10.0 mi NNE 5.8 mph - N/A   Overcast
11:35 PM 21.2 °F 16.4 °F 17.4 °F 85% 30.15 in 10.0 mi NNW 3.5 mph - N/A   Overcast
11:55 PM 21.0 °F 16.2 °F 17.4 °F 86% 30.14 in 10.0 mi NNW 3.5 mph - N/A   Overcast